Location: Pallagorio
(39.3000°N, 16.9000°E)
Time: 02:02:25
(UTC+00:00)

Hubble Space Telescope - Pass Details

Date: 24 January 2021
Orbit: 535 x 539 km, 28.5° (Epoch: 08 March)

Event Time Altitude Azimuth Distance (km) Brightness Sun altitude
Rises 17:19:39 0° 249° (WSW) 2,674 6.1 -14.7°
Reaches altitude 10° 17:22:36 10° 227° (SW) 1,783 4.3 -15.3°
Maximum altitude 17:25:09 16° 188° (S) 1,441 3.2 -15.8°
Drops below altitude 10° 17:27:42 10° 150° (SSE) 1,782 3.2 -16.3°
Enters shadow 17:28:23 - 143° (SE) 1,956 3.4 -16.4°
